| time (UTC) | temp F | wind direction | speed MPH | gust MPH | rain 1hr in | rain 24hr in | rain mn in | humidity % | barometer mb |
| 20260904141059 | 60 | 286 | 1.0 | 6.0 | 0.00 | 0.00 | 0.00 | 57 | 1015.8 |
| 20260904140557 | 60 | 325 | 3.0 | 8.0 | 0.00 | 0.00 | 0.00 | 57 | 1015.7 |
| 20260904140055 | 62 | 288 | 4.0 | 8.0 | 0.00 | 0.00 | 0.00 | 53 | 1015.8 |
| 20260904135557 | 63 | 248 | 3.0 | 5.0 | 0.00 | 0.00 | 0.00 | 40 | 1015.7 |
| 20260904135055 | 63 | 246 | 3.0 | 9.0 | 0.00 | 0.00 | 0.00 | 40 | 1015.7 |
| 20260904134554 | 63 | 186 | 5.0 | 9.0 | 0.00 | 0.00 | 0.00 | 40 | 1015.7 |
| 20260904134054 | 63 | 198 | 4.0 | 8.0 | 0.00 | 0.00 | 0.00 | 40 | 1015.6 |
| 20260904133554 | 63 | 202 | 3.0 | 6.0 | 0.00 | 0.00 | 0.00 | 40 | 1015.6 |
| 20260904133054 | 63 | 182 | 3.0 | 7.0 | 0.00 | 0.00 | 0.00 | 40 | 1015.6 |
| 20260904132553 | 63 | 219 | 2.0 | 9.0 | 0.00 | 0.00 | 0.00 | 40 | 1015.5 |
| 20260904132053 | 63 | 172 | 4.0 | 9.0 | 0.00 | 0.00 | 0.00 | 39 | 1015.4 |
| 20260904131555 | 63 | 163 | 3.0 | 8.0 | 0.00 | 0.00 | 0.00 | 40 | 1015.4 |
| 20260904131052 | 63 | 182 | 5.0 | 10.0 | 0.00 | 0.00 | 0.00 | 40 | 1015.4 |
| 20260904130552 | 63 | 217 | 6.0 | 10.0 | 0.00 | 0.00 | 0.00 | 39 | 1015.3 |
| 20260904130052 | 63 | 178 | 5.0 | 11.0 | 0.00 | 0.00 | 0.00 | 40 | 1015.3 |
| 20260904125551 | 63 | 206 | 4.0 | 8.0 | 0.00 | 0.00 | 0.00 | 40 | 1015.3 |
| 20260904125051 | 63 | 194 | 3.0 | 7.0 | 0.00 | 0.00 | 0.00 | 40 | 1015.3 |
| 20260904124600 | 63 | 207 | 3.0 | 7.0 | 0.00 | 0.00 | 0.00 | 40 | 1015.3 |
| 20260904124054 | 63 | 219 | 0.0 | 5.0 | 0.00 | 0.00 | 0.00 | 40 | 1015.3 |
| 20260904123550 | 63 | 196 | 2.0 | 6.0 | 0.00 | 0.00 | 0.00 | 40 | 1015.3 |
| 20260904123050 | 63 | 193 | 3.0 | 10.0 | 0.00 | 0.00 | 0.00 | 40 | 1015.3 |
| 20260904122550 | 63 | 194 | 2.0 | 10.0 | 0.00 | 0.00 | 0.00 | 39 | 1015.3 |
| 20260904122050 | 63 | 205 | 3.0 | 7.0 | 0.00 | 0.00 | 0.00 | 40 | 1015.3 |
| 20260904121550 | 63 | 205 | 3.0 | 7.0 | 0.00 | 0.00 | 0.00 | 40 | 1015.3 |
| 20260904121051 | 63 | 202 | 1.0 | 5.0 | 0.00 | 0.00 | 0.00 | 40 | 1015.3 |
| 20260904120552 | 63 | 181 | 1.0 | 6.0 | 0.00 | 0.00 | 0.00 | 39 | 1015.3 |
| 20260904120051 | 63 | 161 | 2.0 | 11.0 | 0.00 | 0.00 | 0.00 | 39 | 1015.4 |
| 20260904115548 | 63 | 214 | 5.0 | 11.0 | 0.00 | 0.00 | 0.00 | 39 | 1015.4 |
| 20260904115048 | 63 | 171 | 5.0 | 10.0 | 0.00 | 0.00 | 0.00 | 39 | 1015.3 |
| 20260904114548 | 63 | 182 | 4.0 | 10.0 | 0.00 | 0.00 | 0.00 | 39 | 1015.3 |
| 20260904114048 | 63 | 194 | 4.0 | 11.0 | 0.00 | 0.00 | 0.00 | 39 | 1015.2 |
| 20260904113547 | 63 | 200 | 5.0 | 16.0 | 0.00 | 0.00 | 0.00 | 39 | 1015.3 |
| 20260904113051 | 63 | 203 | 7.0 | 16.0 | 0.00 | 0.00 | 0.00 | 39 | 1015.2 |
| 20260904112548 | 63 | 169 | 8.0 | 16.0 | 0.00 | 0.00 | 0.00 | 39 | 1015.2 |
| 20260904112051 | 63 | 207 | 5.0 | 14.0 | 0.00 | 0.00 | 0.00 | 39 | 1015.2 |
| 20260904111546 | 63 | 185 | 8.0 | 16.0 | 0.00 | 0.00 | 0.00 | 39 | 1015.2 |
| 20260904111045 | 63 | 200 | 6.0 | 12.0 | 0.00 | 0.00 | 0.00 | 39 | 1015.2 |
| 20260904110548 | 63 | 169 | 7.0 | 13.0 | 0.00 | 0.00 | 0.00 | 39 | 1015.2 |
| 20260904110045 | 63 | 167 | 6.0 | 17.0 | 0.00 | 0.00 | 0.00 | 39 | 1015.2 |
| 20260904105545 | 63 | 178 | 9.0 | 17.0 | 0.00 | 0.00 | 0.00 | 39 | 1015.1 |
| 20260904105043 | 63 | 182 | 11.0 | 15.0 | 0.00 | 0.00 | 0.00 | 39 | 1015.1 |
| 20260904104543 | 63 | 171 | 8.0 | 19.0 | 0.00 | 0.00 | 0.00 | 39 | 1015.1 |
| 20260904104042 | 63 | 180 | 8.0 | 19.0 | 0.00 | 0.00 | 0.00 | 39 | 1015.1 |
| 20260904103542 | 63 | 194 | 8.0 | 14.0 | 0.00 | 0.00 | 0.00 | 39 | 1015.1 |
| 20260904103045 | 63 | 184 | 8.0 | 12.0 | 0.00 | 0.00 | 0.00 | 39 | 1015.1 |
| 20260904102542 | 63 | 170 | 6.0 | 13.0 | 0.00 | 0.00 | 0.00 | 39 | 1015.0 |
| 20260904102042 | 63 | 161 | 6.0 | 13.0 | 0.00 | 0.00 | 0.00 | 39 | 1015.0 |
| 20260904101543 | 63 | 182 | 7.0 | 17.0 | 0.00 | 0.00 | 0.00 | 39 | 1015.1 |
| 20260904101044 | 63 | 181 | 7.0 | 17.0 | 0.00 | 0.00 | 0.00 | 39 | 1015.2 |
| 20260904100545 | 63 | 190 | 8.0 | 15.0 | 0.00 | 0.00 | 0.00 | 39 | 1015.2 |
| 20260904100043 | 63 | 203 | 9.0 | 16.0 | 0.00 | 0.00 | 0.00 | 39 | 1015.2 |
| 20260904095540 | 63 | 202 | 9.0 | 16.0 | 0.00 | 0.00 | 0.00 | 39 | 1015.2 |
| 20260904095044 | 63 | 170 | 10.0 | 16.0 | 0.00 | 0.00 | 0.00 | 39 | 1015.2 |
| 20260904094546 | 63 | 165 | 8.0 | 16.0 | 0.00 | 0.00 | 0.00 | 38 | 1015.2 |
| 20260904094038 | 63 | 147 | 8.0 | 20.0 | 0.00 | 0.00 | 0.00 | 38 | 1015.3 |
| 20260904093542 | 63 | 148 | 8.0 | 20.0 | 0.00 | 0.00 | 0.00 | 38 | 1015.2 |
| 20260904093037 | 63 | 186 | 10.0 | 18.0 | 0.00 | 0.00 | 0.00 | 38 | 1015.3 |
| 20260904092536 | 63 | 157 | 7.0 | 14.0 | 0.00 | 0.00 | 0.00 | 38 | 1015.4 |
| 20260904092036 | 63 | 172 | 8.0 | 17.0 | 0.00 | 0.00 | 0.00 | 38 | 1015.3 |
| 20260904091536 | 63 | 155 | 10.0 | 17.0 | 0.00 | 0.00 | 0.00 | 38 | 1015.4 |
| 20260904091035 | 63 | 180 | 8.0 | 11.0 | 0.00 | 0.00 | 0.00 | 38 | 1015.4 |
| 20260904090537 | 63 | 146 | 6.0 | 17.0 | 0.00 | 0.00 | 0.00 | 37 | 1015.5 |
| 20260904090034 | 63 | 191 | 6.0 | 17.0 | 0.00 | 0.00 | 0.00 | 37 | 1015.5 |
| 20260904085534 | 63 | 180 | 10.0 | 18.0 | 0.00 | 0.00 | 0.00 | 37 | 1015.6 |
| 20260904085035 | 63 | 222 | 10.0 | 18.0 | 0.00 | 0.00 | 0.00 | 37 | 1015.6 |
| 20260904084533 | 63 | 175 | 8.0 | 17.0 | 0.00 | 0.00 | 0.00 | 37 | 1015.6 |
| 20260904084032 | 63 | 165 | 7.0 | 18.0 | 0.00 | 0.00 | 0.00 | 37 | 1015.7 |
| 20260904083531 | 63 | 209 | 9.0 | 17.0 | 0.00 | 0.00 | 0.00 | 37 | 1015.7 |
| 20260904083034 | 63 | 162 | 9.0 | 14.0 | 0.00 | 0.00 | 0.00 | 37 | 1015.8 |
| 20260904082531 | 63 | 155 | 10.0 | 16.0 | 0.00 | 0.00 | 0.00 | 37 | 1015.8 |
| 20260904082029 | 63 | 184 | 8.0 | 16.0 | 0.00 | 0.00 | 0.00 | 37 | 1015.8 |
| 20260904081530 | 63 | 184 | 8.0 | 17.0 | 0.00 | 0.00 | 0.00 | 37 | 1015.9 |
| 20260904081029 | 63 | 188 | 7.0 | 17.0 | 0.00 | 0.00 | 0.00 | 37 | 1016.0 |
| 20260904080529 | 63 | 194 | 5.0 | 15.0 | 0.00 | 0.00 | 0.00 | 36 | 1016.0 |
| 20260904080029 | 63 | 158 | 10.0 | 18.0 | 0.00 | 0.00 | 0.00 | 36 | 1016.0 |
| 20260904075530 | 64 | 196 | 9.0 | 18.0 | 0.00 | 0.00 | 0.00 | 36 | 1016.0 |
| 20260904075026 | 63 | 225 | 7.0 | 20.0 | 0.00 | 0.00 | 0.00 | 36 | 1016.1 |
| 20260904074541 | 64 | 182 | 10.0 | 20.0 | 0.00 | 0.00 | 0.00 | 36 | 1016.1 |
| 20260904074025 | 63 | 164 | 10.0 | 17.0 | 0.00 | 0.00 | 0.00 | 36 | 1016.0 |
| 20260904073525 | 63 | 188 | 7.0 | 16.0 | 0.00 | 0.00 | 0.00 | 36 | 1015.9 |
| 20260904073025 | 64 | 172 | 9.0 | 22.0 | 0.00 | 0.00 | 0.00 | 35 | 1015.9 |
| 20260904072523 | 64 | 200 | 12.0 | 22.0 | 0.00 | 0.00 | 0.00 | 36 | 1015.9 |
| 20260904072022 | 63 | 158 | 4.0 | 15.0 | 0.00 | 0.00 | 0.00 | 36 | 1015.9 |
| 20260904071530 | 63 | 194 | 6.0 | 15.0 | 0.00 | 0.00 | 0.00 | 36 | 1016.0 |
| 20260904071025 | 63 | 158 | 6.0 | 15.0 | 0.00 | 0.00 | 0.00 | 36 | 1015.9 |
| 20260904070524 | 63 | 174 | 5.0 | 12.0 | 0.00 | 0.00 | 0.00 | 36 | 1015.8 |
| 20260904070020 | 64 | 198 | 5.0 | 12.0 | 0.00 | 0.00 | 0.00 | 36 | 1015.7 |
| 20260904065519 | 64 | 195 | 8.0 | 17.0 | 0.00 | 0.00 | 0.00 | 35 | 1015.8 |
| 20260904065019 | 64 | 186 | 7.0 | 16.0 | 0.00 | 0.00 | 0.00 | 35 | 1015.8 |
| 20260904064521 | 64 | 163 | 7.0 | 15.0 | 0.00 | 0.00 | 0.00 | 35 | 1015.7 |
| 20260904064019 | 64 | 196 | 9.0 | 17.0 | 0.00 | 0.00 | 0.00 | 35 | 1015.6 |
| 20260904063519 | 64 | 171 | 9.0 | 17.0 | 0.00 | 0.00 | 0.00 | 35 | 1015.6 |
| 20260904063019 | 64 | 189 | 9.0 | 13.0 | 0.00 | 0.00 | 0.00 | 35 | 1015.6 |
| 20260904062519 | 64 | 205 | 7.0 | 14.0 | 0.00 | 0.00 | 0.00 | 35 | 1015.7 |
| 20260904062019 | 64 | 173 | 9.0 | 15.0 | 0.00 | 0.00 | 0.00 | 35 | 1015.7 |
| 20260904061518 | 64 | 156 | 6.0 | 16.0 | 0.00 | 0.00 | 0.00 | 35 | 1015.7 |
| 20260904061019 | 64 | 207 | 8.0 | 17.0 | 0.00 | 0.00 | 0.00 | 35 | 1015.7 |
| 20260904060518 | 64 | 171 | 6.0 | 18.0 | 0.00 | 0.00 | 0.00 | 35 | 1015.6 |
| 20260904060018 | 64 | 142 | 10.0 | 18.0 | 0.00 | 0.00 | 0.00 | 35 | 1015.6 |
| 20260904055618 | 64 | 197 | 6.0 | 17.0 | 0.00 | 0.00 | 0.00 | 35 | 1015.7 |
| 20260904055019 | 64 | 198 | 8.0 | 15.0 | 0.00 | 0.00 | 0.00 | 35 | 1015.7 |
| 20260904054519 | 64 | 167 | 8.0 | 15.0 | 0.00 | 0.00 | 0.00 | 35 | 1015.7 |
| 20260904054017 | 64 | 184 | 8.0 | 22.0 | 0.00 | 0.00 | 0.00 | 35 | 1015.7 |
| 20260904053516 | 64 | 194 | 8.0 | 22.0 | 0.00 | 0.00 | 0.00 | 35 | 1015.7 |
| 20260904053016 | 64 | 204 | 6.0 | 15.0 | 0.00 | 0.00 | 0.00 | 35 | 1015.7 |
| 20260904052516 | 64 | 150 | 8.0 | 15.0 | 0.00 | 0.00 | 0.00 | 34 | 1015.7 |
| 20260904052016 | 65 | 183 | 5.0 | 14.0 | 0.00 | 0.00 | 0.00 | 34 | 1015.8 |
| 20260904051520 | 65 | 169 | 6.0 | 16.0 | 0.00 | 0.00 | 0.00 | 34 | 1015.8 |
| 20260904051015 | 65 | 175 | 4.0 | 17.0 | 0.00 | 0.00 | 0.00 | 34 | 1015.8 |
| 20260904050515 | 65 | 134 | 8.0 | 17.0 | 0.00 | 0.00 | 0.00 | 34 | 1015.7 |
| 20260904050015 | 65 | 156 | 4.0 | 15.0 | 0.00 | 0.00 | 0.00 | 34 | 1015.8 |
| 20260904045515 | 65 | 163 | 10.0 | 18.0 | 0.00 | 0.00 | 0.00 | 34 | 1015.7 |
| 20260904045015 | 65 | 223 | 8.0 | 18.0 | 0.00 | 0.00 | 0.00 | 33 | 1015.6 |
| 20260904044516 | 65 | 182 | 6.0 | 15.0 | 0.00 | 0.00 | 0.00 | 33 | 1015.6 |
| 20260904044017 | 65 | 194 | 6.0 | 26.0 | 0.00 | 0.00 | 0.00 | 33 | 1015.7 |
| 20260904043514 | 66 | 146 | 6.0 | 26.0 | 0.00 | 0.00 | 0.00 | 33 | 1015.7 |
| 20260904043014 | 66 | 176 | 7.0 | 16.0 | 0.00 | 0.00 | 0.00 | 34 | 1015.4 |
| 20260904042515 | 66 | 169 | 8.0 | 16.0 | 0.00 | 0.00 | 0.00 | 34 | 1015.5 |
| 20260904042012 | 66 | 165 | 6.0 | 12.0 | 0.00 | 0.00 | 0.00 | 34 | 1015.5 |
| 20260904041512 | 66 | 217 | 6.0 | 16.0 | 0.00 | 0.00 | 0.00 | 34 | 1015.5 |
| 20260904041017 | 66 | 234 | 9.0 | 16.0 | 0.00 | 0.00 | 0.00 | 34 | 1015.5 |
| 20260904040513 | 66 | 186 | 8.0 | 16.0 | 0.00 | 0.00 | 0.00 | 35 | 1015.4 |
| 20260904040013 | 65 | 193 | 9.0 | 19.0 | 0.00 | 0.00 | 0.00 | 35 | 1015.1 |
| 20260904035513 | 65 | 188 | 5.0 | 17.0 | 0.00 | 0.00 | 0.00 | 39 | 1015.0 |
| 20260904035012 | 65 | 223 | 10.0 | 17.0 | 0.00 | 0.00 | 0.00 | 37 | 1015.0 |
| 20260904034511 | 65 | 239 | 8.0 | 18.0 | 0.00 | 0.00 | 0.00 | 40 | 1015.0 |
| 20260904034012 | 65 | 241 | 11.0 | 19.0 | 0.00 | 0.00 | 0.00 | 39 | 1014.9 |
| 20260904033511 | 65 | 247 | 9.0 | 22.0 | 0.00 | 0.00 | 0.00 | 40 | 1014.8 |
| 20260904033010 | 65 | 191 | 12.0 | 23.0 | 0.00 | 0.00 | 0.00 | 40 | 1014.7 |
| 20260904032512 | 65 | 251 | 13.0 | 23.0 | 0.00 | 0.00 | 0.00 | 41 | 1014.5 |
| 20260904032014 | 65 | 184 | 10.0 | 26.0 | 0.00 | 0.00 | 0.00 | 40 | 1014.5 |
| 20260904031510 | 65 | 246 | 10.0 | 26.0 | 0.00 | 0.00 | 0.00 | 40 | 1014.5 |
| 20260904031009 | 65 | 238 | 9.0 | 18.0 | 0.00 | 0.00 | 0.00 | 40 | 1014.7 |
| 20260904030510 | 65 | 234 | 6.0 | 16.0 | 0.00 | 0.00 | 0.00 | 40 | 1014.6 |
| 20260904030009 | 65 | 221 | 5.0 | 10.0 | 0.00 | 0.00 | 0.00 | 40 | 1014.7 |
| 20260904025509 | 65 | 227 | 5.0 | 12.0 | 0.00 | 0.00 | 0.00 | 40 | 1014.6 |
| 20260904025008 | 65 | 193 | 4.0 | 18.0 | 0.00 | 0.00 | 0.00 | 40 | 1014.6 |
| 20260904024507 | 65 | 284 | 6.0 | 18.0 | 0.00 | 0.00 | 0.00 | 40 | 1014.7 |
| 20260904024007 | 65 | 223 | 8.0 | 18.0 | 0.00 | 0.00 | 0.00 | 39 | 1014.7 |
| 20260904023508 | 66 | 199 | 11.0 | 21.0 | 0.00 | 0.00 | 0.00 | 39 | 1014.7 |
| 20260904023008 | 66 | 258 | 12.0 | 21.0 | 0.00 | 0.00 | 0.00 | 39 | 1014.6 |
| 20260904022508 | 66 | 259 | 8.0 | 17.0 | 0.00 | 0.00 | 0.00 | 39 | 1014.5 |
| 20260904022009 | 66 | 265 | 6.0 | 17.0 | 0.00 | 0.00 | 0.00 | 38 | 1014.4 |
| 20260904021507 | 66 | 240 | 10.0 | 17.0 | 0.00 | 0.00 | 0.00 | 37 | 1014.4 |
| 20260904021007 | 66 | 246 | 3.0 | 12.0 | 0.00 | 0.00 | 0.00 | 37 | 1014.4 |
| 20260904020506 | 67 | 246 | 4.0 | 18.0 | 0.00 | 0.00 | 0.00 | 36 | 1014.5 |
| 20260904020006 | 67 | 244 | 6.0 | 18.0 | 0.00 | 0.00 | 0.00 | 35 | 1014.6 |
| 20260904015505 | 67 | 244 | 9.0 | 13.0 | 0.00 | 0.00 | 0.00 | 35 | 1014.4 |
| 20260904015007 | 68 | 260 | 8.0 | 14.0 | 0.00 | 0.00 | 0.00 | 34 | 1014.6 |
| 20260904014505 | 68 | 232 | 5.0 | 14.0 | 0.00 | 0.00 | 0.00 | 33 | 1014.5 |
| 20260904014004 | 68 | 192 | 9.0 | 18.0 | 0.00 | 0.00 | 0.00 | 33 | 1014.6 |
| 20260904013503 | 69 | 247 | 11.0 | 23.0 | 0.00 | 0.00 | 0.00 | 32 | 1014.5 |
| 20260904013004 | 70 | 180 | 7.0 | 17.0 | 0.00 | 0.00 | 0.00 | 30 | 1014.6 |
| 20260904012506 | 70 | 227 | 5.0 | 15.0 | 0.00 | 0.00 | 0.00 | 31 | 1014.7 |
| 20260904012005 | 70 | 250 | 9.0 | 15.0 | 0.00 | 0.00 | 0.00 | 30 | 1014.8 |
| 20260904011504 | 70 | 233 | 9.0 | 19.0 | 0.00 | 0.00 | 0.00 | 29 | 1014.8 |
| 20260904011006 | 70 | 182 | 8.0 | 19.0 | 0.00 | 0.00 | 0.00 | 30 | 1014.9 |
| 20260904010502 | 70 | 192 | 8.0 | 16.0 | 0.00 | 0.00 | 0.00 | 29 | 1014.9 |
| 20260904010002 | 71 | 173 | 10.0 | 26.0 | 0.00 | 0.00 | 0.00 | 29 | 1014.9 |
| 20260904005501 | 71 | 240 | 9.0 | 26.0 | 0.00 | 0.00 | 0.00 | 29 | 1015.0 |
| 20260904005001 | 71 | 191 | 11.0 | 21.0 | 0.00 | 0.00 | 0.00 | 28 | 1015.0 |
| 20260904004501 | 71 | 225 | 12.0 | 21.0 | 0.00 | 0.00 | 0.00 | 28 | 1015.0 |
| 20260904004001 | 72 | 238 | 12.0 | 22.0 | 0.00 | 0.00 | 0.00 | 28 | 1014.9 |
| 20260904003503 | 72 | 232 | 13.0 | 22.0 | 0.00 | 0.00 | 0.00 | 27 | 1014.9 |
| 20260904003105 | 72 | 220 | 13.0 | 23.0 | 0.00 | 0.00 | 0.00 | 28 | 1015.1 |
| 20260904003001 | 73 | 248 | 12.0 | 23.0 | 0.00 | 0.00 | 0.00 | 28 | 1014.9 |
| 20260904002600 | 72 | 235 | 13.0 | 22.0 | 0.00 | 0.00 | 0.00 | 28 | 1014.9 |
| 20260904002103 | 72 | 183 | 10.0 | 21.0 | 0.00 | 0.00 | 0.00 | 28 | 1014.8 |
| 20260904001601 | 72 | 171 | 10.0 | 22.0 | 0.00 | 0.00 | 0.00 | 28 | 1014.8 |
| 20260904001100 | 73 | 194 | 14.0 | 24.0 | 0.00 | 0.00 | 0.00 | 27 | 1014.7 |
| 20260904000604 | 73 | 189 | 11.0 | 24.0 | 0.00 | 0.00 | 0.00 | 27 | 1014.8 |
| 20260904000140 | 73 | 192 | 11.0 | 22.0 | 0.00 | 0.00 | 0.00 | 27 | 1014.8 |
| 20260903235559 | 73 | 276 | 11.0 | 20.0 | 0.00 | 0.00 | 0.00 | 27 | 1014.7 |
| 20260903235057 | 73 | 188 | 9.0 | 15.0 | 0.00 | 0.00 | 0.00 | 27 | 1014.8 |
| 20260903234558 | 74 | 223 | 8.0 | 20.0 | 0.00 | 0.00 | 0.00 | 26 | 1014.8 |
| 20260903234057 | 73 | 148 | 9.0 | 20.0 | 0.00 | 0.00 | 0.00 | 27 | 1014.9 |
| 20260903233559 | 73 | 229 | 10.0 | 17.0 | 0.00 | 0.00 | 0.00 | 26 | 1014.9 |
| 20260903233057 | 74 | 189 | 10.0 | 22.0 | 0.00 | 0.00 | 0.00 | 26 | 1015.0 |
| 20260903232556 | 74 | 232 | 12.0 | 22.0 | 0.00 | 0.00 | 0.00 | 26 | 1015.1 |
| 20260903232100 | 74 | 229 | 12.0 | 24.0 | 0.00 | 0.00 | 0.00 | 26 | 1015.2 |
| 20260903231608 | 74 | 188 | 12.0 | 24.0 | 0.00 | 0.00 | 0.00 | 25 | 1015.1 |
| 20260903231054 | 75 | 250 | 12.0 | 22.0 | 0.00 | 0.00 | 0.00 | 25 | 1015.1 |
| 20260903230555 | 75 | 257 | 11.0 | 22.0 | 0.00 | 0.00 | 0.00 | 26 | 1015.2 |
| 20260903230103 | 75 | 205 | 11.0 | 25.0 | 0.00 | 0.00 | 0.00 | 25 | 1015.2 |
| 20260903225556 | 74 | 245 | 12.0 | 23.0 | 0.00 | 0.00 | 0.00 | 26 | 1015.3 |
| 20260903225053 | 75 | 209 | 9.0 | 23.0 | 0.00 | 0.00 | 0.00 | 25 | 1015.3 |
| 20260903224556 | 75 | 215 | 12.0 | 23.0 | 0.00 | 0.00 | 0.00 | 25 | 1015.4 |
| 20260903224055 | 75 | 225 | 11.0 | 26.0 | 0.00 | 0.00 | 0.00 | 25 | 1015.5 |
| 20260903223552 | 75 | 248 | 13.0 | 26.0 | 0.00 | 0.00 | 0.00 | 25 | 1015.4 |
| 20260903223053 | 74 | 172 | 11.0 | 20.0 | 0.00 | 0.00 | 0.00 | 25 | 1015.3 |
| 20260903222555 | 74 | 168 | 12.0 | 24.0 | 0.00 | 0.00 | 0.00 | 25 | 1015.2 |
| 20260903222051 | 74 | 227 | 11.0 | 24.0 | 0.00 | 0.00 | 0.00 | 25 | 1015.3 |
| 20260903221552 | 75 | 223 | 14.0 | 24.0 | 0.00 | 0.00 | 0.00 | 25 | 1015.3 |
| 20260903221051 | 75 | 246 | 12.0 | 20.0 | 0.00 | 0.00 | 0.00 | 25 | 1015.3 |
| 20260903220551 | 75 | 218 | 10.0 | 21.0 | 0.00 | 0.00 | 0.00 | 26 | 1015.4 |
| 20260903220106 | 76 | 240 | 12.0 | 21.0 | 0.00 | 0.00 | 0.00 | 24 | 1015.3 |
| 20260903215549 | 75 | 178 | 10.0 | 20.0 | 0.00 | 0.00 | 0.00 | 25 | 1015.5 |
| 20260903215050 | 74 | 213 | 9.0 | 20.0 | 0.00 | 0.00 | 0.00 | 25 | 1015.5 |
| 20260903214553 | 75 | 216 | 13.0 | 24.0 | 0.00 | 0.00 | 0.00 | 24 | 1015.6 |
| 20260903214048 | 75 | 198 | 11.0 | 24.0 | 0.00 | 0.00 | 0.00 | 24 | 1015.7 |
| 20260903213548 | 74 | 211 | 11.0 | 23.0 | 0.00 | 0.00 | 0.00 | 25 | 1015.5 |
| 20260903213050 | 73 | 200 | 13.0 | 22.0 | 0.00 | 0.00 | 0.00 | 25 | 1015.6 |
| 20260903212546 | 72 | 190 | 12.0 | 22.0 | 0.00 | 0.00 | 0.00 | 25 | 1015.7 |
| 20260903212046 | 73 | 230 | 13.0 | 23.0 | 0.00 | 0.00 | 0.00 | 25 | 1015.6 |
| 20260903211545 | 73 | 172 | 7.0 | 16.0 | 0.00 | 0.00 | 0.00 | 25 | 1015.7 |
| 20260903211044 | 73 | 244 | 8.0 | 15.0 | 0.00 | 0.00 | 0.00 | 25 | 1015.9 |
| 20260903210544 | 74 | 197 | 9.0 | 22.0 | 0.00 | 0.00 | 0.00 | 24 | 1015.9 |
| 20260903210049 | 75 | 192 | 11.0 | 18.0 | 0.00 | 0.00 | 0.00 | 23 | 1016.2 |
| 20260903205542 | 75 | 180 | 10.0 | 23.0 | 0.00 | 0.00 | 0.00 | 24 | 1016.2 |
| 20260903205042 | 75 | 223 | 11.0 | 20.0 | 0.00 | 0.00 | 0.00 | 24 | 1016.3 |
| 20260903204542 | 74 | 225 | 8.0 | 18.0 | 0.00 | 0.00 | 0.00 | 24 | 1016.4 |
| 20260903204040 | 74 | 182 | 9.0 | 17.0 | 0.00 | 0.00 | 0.00 | 24 | 1016.5 |
| 20260903203543 | 73 | 175 | 7.0 | 17.0 | 0.00 | 0.00 | 0.00 | 25 | 1016.4 |
| 20260903203043 | 73 | 235 | 10.0 | 18.0 | 0.00 | 0.00 | 0.00 | 25 | 1016.6 |
| 20260903202540 | 74 | 217 | 8.0 | 17.0 | 0.00 | 0.00 | 0.00 | 24 | 1016.5 |
| 20260903202039 | 73 | 173 | 3.0 | 11.0 | 0.00 | 0.00 | 0.00 | 24 | 1016.6 |
| 20260903201539 | 72 | 245 | 5.0 | 19.0 | 0.00 | 0.00 | 0.00 | 25 | 1016.7 |
| 20260903201037 | 72 | 170 | 6.0 | 19.0 | 0.00 | 0.00 | 0.00 | 23 | 1016.9 |
| 20260903200538 | 72 | 203 | 11.0 | 20.0 | 0.00 | 0.00 | 0.00 | 23 | 1017.1 |
| 20260903200037 | 72 | 250 | 9.0 | 21.0 | 0.00 | 0.00 | 0.00 | 23 | 1017.0 |
| 20260903195536 | 72 | 168 | 9.0 | 22.0 | 0.00 | 0.00 | 0.00 | 23 | 1017.2 |
| 20260903195036 | 73 | 186 | 11.0 | 19.0 | 0.00 | 0.00 | 0.00 | 22 | 1017.2 |
| 20260903194546 | 73 | 188 | 8.0 | 23.0 | 0.00 | 0.00 | 0.00 | 23 | 1017.3 |
| 20260903194036 | 73 | 204 | 12.0 | 22.0 | 0.00 | 0.00 | 0.00 | 22 | 1017.5 |
| 20260903193536 | 74 | 200 | 11.0 | 22.0 | 0.00 | 0.00 | 0.00 | 22 | 1017.5 |
| 20260903193038 | 74 | 164 | 11.0 | 22.0 | 0.00 | 0.00 | 0.00 | 22 | 1017.5 |
| 20260903192536 | 75 | 198 | 10.0 | 21.0 | 0.00 | 0.00 | 0.00 | 22 | 1017.6 |
| 20260903192033 | 75 | 158 | 11.0 | 24.0 | 0.00 | 0.00 | 0.00 | 22 | 1017.5 |
| 20260903191541 | 74 | 202 | 12.0 | 24.0 | 0.00 | 0.00 | 0.00 | 23 | 1017.7 |
| 20260903191034 | 73 | 200 | 2.0 | 21.0 | 0.00 | 0.00 | 0.00 | 23 | 1017.8 |
| 20260903190530 | 72 | 213 | 6.0 | 26.0 | 0.00 | 0.00 | 0.00 | 23 | 1018.0 |
| 20260903190030 | 71 | 162 | 14.0 | 26.0 | 0.00 | 0.00 | 0.00 | 23 | 1018.0 |
| 20260903185528 | 70 | 160 | 8.0 | 19.0 | 0.00 | 0.00 | 0.00 | 24 | 1018.1 |
| 20260903185127 | 70 | 157 | 5.0 | 19.0 | 0.00 | 0.00 | 0.00 | 23 | 1018.3 |
| 20260903184527 | 70 | 173 | 6.0 | 21.0 | 0.00 | 0.00 | 0.00 | 24 | 1018.4 |
| 20260903184026 | 71 | 146 | 4.0 | 18.0 | 0.00 | 0.00 | 0.00 | 23 | 1018.5 |
| 20260903183527 | 71 | 178 | 9.0 | 18.0 | 0.00 | 0.00 | 0.00 | 23 | 1018.8 |
| 20260903183024 | 71 | 163 | 4.0 | 14.0 | 0.00 | 0.00 | 0.00 | 23 | 1018.8 |
| 20260903182522 | 71 | 189 | 8.0 | 14.0 | 0.00 | 0.00 | 0.00 | 22 | 1019.0 |
| 20260903182023 | 70 | 172 | 6.0 | 14.0 | 0.00 | 0.00 | 0.00 | 23 | 1018.9 |
| 20260903181536 | 70 | 188 | 9.0 | 19.0 | 0.00 | 0.00 | 0.00 | 23 | 1019.1 |
| 20260903181022 | 70 | 163 | 14.0 | 21.0 | 0.00 | 0.00 | 0.00 | 23 | 1019.1 |
| 20260903180522 | 69 | 186 | 7.0 | 15.0 | 0.00 | 0.00 | 0.00 | 24 | 1019.2 |
| 20260903180022 | 69 | 207 | 7.0 | 17.0 | 0.00 | 0.00 | 0.00 | 24 | 1019.3 |
| 20260903175521 | 69 | 157 | 7.0 | 14.0 | 0.00 | 0.00 | 0.00 | 24 | 1019.2 |
| 20260903175021 | 69 | 155 | 1.0 | 17.0 | 0.00 | 0.00 | 0.00 | 24 | 1019.2 |
| 20260903174521 | 69 | 159 | 11.0 | 17.0 | 0.00 | 0.00 | 0.00 | 23 | 1019.4 |
| 20260903174020 | 69 | 202 | 1.0 | 19.0 | 0.00 | 0.00 | 0.00 | 23 | 1019.4 |
| 20260903173521 | 69 | 144 | 10.0 | 19.0 | 0.00 | 0.00 | 0.00 | 23 | 1019.5 |
| 20260903173019 | 68 | 159 | 8.0 | 19.0 | 0.00 | 0.00 | 0.00 | 24 | 1019.4 |
| 20260903172520 | 67 | 221 | 9.0 | 19.0 | 0.00 | 0.00 | 0.00 | 24 | 1019.5 |
| 20260903172019 | 67 | 203 | 9.0 | 15.0 | 0.00 | 0.00 | 0.00 | 25 | 1019.5 |
| 20260903171530 | 67 | 174 | 7.0 | 15.0 | 0.00 | 0.00 | 0.00 | 24 | 1019.6 |
| 20260903171017 | 67 | 163 | 8.0 | 15.0 | 0.00 | 0.00 | 0.00 | 24 | 1019.6 |
| 20260903170517 | 67 | 171 | 9.0 | 18.0 | 0.00 | 0.00 | 0.00 | 24 | 1019.7 |
| 20260903170017 | 68 | 180 | 5.0 | 20.0 | 0.00 | 0.00 | 0.00 | 24 | 1019.7 |
| 20260903165516 | 68 | 153 | 9.0 | 20.0 | 0.00 | 0.00 | 0.00 | 23 | 1019.9 |
| 20260903165015 | 68 | 208 | 4.0 | 17.0 | 0.00 | 0.00 | 0.00 | 23 | 1019.9 |
| 20260903164515 | 68 | 175 | 5.0 | 17.0 | 0.00 | 0.00 | 0.00 | 23 | 1019.9 |
| 20260903164015 | 69 | 210 | 10.0 | 17.0 | 0.00 | 0.00 | 0.00 | 22 | 1019.8 |
| 20260903163517 | 70 | 190 | 4.0 | 11.0 | 0.00 | 0.00 | 0.00 | 21 | 1019.9 |
| 20260903163016 | 71 | 21 | 0.0 | 3.0 | 0.00 | 0.00 | 0.00 | 21 | 1019.9 |
| 20260903162511 | 70 | 82 | 0.0 | 1.0 | 0.00 | 0.00 | 0.00 | 21 | 1020.0 |
| 20260903162014 | 69 | 25 | 0.0 | 4.0 | 0.00 | 0.00 | 0.00 | 22 | 1020.0 |
| 20260903161509 | 68 | 5 | 0.0 | 4.0 | 0.00 | 0.00 | 0.00 | 23 | 1020.1 |
| 20260903161007 | 66 | 9 | 0.0 | 1.0 | 0.00 | 0.00 | 0.00 | 25 | 1020.3 |
| 20260903160508 | 65 | 350 | 0.0 | 1.0 | 0.00 | 0.00 | 0.00 | 26 | 1020.4 |
| 20260903160007 | 65 | 236 | 0.0 | 0.0 | 0.00 | 0.00 | 0.00 | 25 | 1020.5 |
| 20260903155504 | 64 | 178 | 0.0 | 2.0 | 0.00 | 0.00 | 0.00 | 25 | 1020.6 |
| 20260903155004 | 64 | 190 | 0.0 | 2.0 | 0.00 | 0.00 | 0.00 | 25 | 1020.7 |
| 20260903154504 | 64 | 217 | 0.0 | 0.0 | 0.00 | 0.00 | 0.00 | 26 | 1020.7 |
| 20260903154004 | 63 | 205 | 0.0 | 2.0 | 0.00 | 0.00 | 0.00 | 26 | 1020.9 |
| 20260903153502 | 62 | 215 | 0.0 | 6.0 | 0.00 | 0.00 | 0.00 | 26 | 1020.9 |
| 20260903153002 | 62 | 220 | 1.0 | 7.0 | 0.00 | 0.00 | 0.00 | 26 | 1021.0 |
| 20260903152506 | 63 | 271 | 4.0 | 7.0 | 0.00 | 0.00 | 0.00 | 26 | 1021.0 |
| 20260903152002 | 63 | 271 | 1.0 | 5.0 | 0.00 | 0.00 | 0.00 | 25 | 1021.0 |
| 20260903151103 | 62 | 232 | 0.0 | 9.0 | 0.00 | 0.00 | 0.00 | 26 | 1021.0 |
| 20260903150559 | 62 | 245 | 1.0 | 8.0 | 0.00 | 0.00 | 0.00 | 26 | 1020.9 |
| 20260903150116 | 61 | 200 | 1.0 | 7.0 | 0.00 | 0.00 | 0.00 | 26 | 1020.8 |
| 20260903145555 | 61 | 254 | 0.0 | 6.0 | 0.00 | 0.00 | 0.00 | 28 | 1020.9 |
| 20260903145054 | 60 | 215 | 0.0 | 4.0 | 0.00 | 0.00 | 0.00 | 27 | 1020.8 |
| 20260903144554 | 59 | 238 | 0.0 | 4.0 | 0.00 | 0.00 | 0.00 | 29 | 1020.9 |
| 20260903144052 | 57 | 209 | 0.0 | 2.0 | 0.00 | 0.00 | 0.00 | 32 | 1020.8 |
| 20260903143552 | 56 | 192 | 0.0 | 0.0 | 0.00 | 0.00 | 0.00 | 36 | 1020.8 |
| 20260903143052 | 55 | 166 | 0.0 | 0.0 | 0.00 | 0.00 | 0.00 | 38 | 1020.8 |
| 20260903142552 | 54 | 166 | 0.0 | 0.0 | 0.00 | 0.00 | 0.00 | 40 | 1020.8 |
| 20260903142056 | 53 | 201 | 0.0 | 0.0 | 0.00 | 0.00 | 0.00 | 41 | 1020.8 |
| 20260903141557 | 53 | 218 | 0.0 | 0.0 | 0.00 | 0.00 | 0.00 | 42 | 1020.8 |